[[[{"header":{"parameterUnit":"kt","parameterCategory":2,"dx":1,"dy":1,"la1":30.253999710083008,"la2":30.299108505249023,"lo1":-89.0895004272461,"lo2":-89.04439544677734,"nx":28,"ny":28,"refTime":"2022-09-25T21:00:00:Z","depth":0,"parameterNumber":1,"parameterNumberName":"U-component_of_WINDS"},"data":[7.1885,7.2125,7.2148,7.2433,7.2502,7.2701,7.278,7.2884,7.2973,7.3213,7.3356,7.3405,7.3503,7.368,7.3836,7.3854,7.3919,7.3987,7.3997,7.3671,7.3628,7.3587,7.353,7.4001,7.4001,7.433,7.4333,7.4335,7.1643,7.1713,7.1871,7.2039,7.2175,7.2123,7.2253,7.237,7.2549,7.2661,7.2803,7.3017,7.319,7.3267,7.3437,7.3551,7.3537,7.3595,7.3587,7.3604,7.3257,7.3197,7.3604,7.3604,7.3604,7.3604,7.3604,7.3604,7.1208,7.1351,7.1466,7.1638,7.1729,7.1842,7.1983,7.2038,7.2194,7.2373,7.2371,7.2576,7.2693,7.291,7.2989,7.3149,7.3088,7.316,7.3178,7.3196,7.3212,7.2733,7.3179,7.3178,7.3177,7.3176,7.3176,0,7.0896,7.0905,7.1058,7.1218,7.1345,7.1472,7.1591,7.168,7.1708,7.1836,7.2022,7.2133,7.2354,7.2533,7.2698,7.2765,7.2726,7.2725,7.2774,7.2778,7.2759,7.2771,7.2204,7.2712,7.2708,7.2705,7.2703,7.2701,7.0459,7.0624,7.0755,7.0859,7.093,7.11,7.1205,7.1217,7.1329,7.1479,7.1606,7.1785,7.1928,7.2225,7.2289,7.2455,7.2437,7.2628,7.2462,7.2458,7.244,7.243,7.2446,7.266,7.2665,7.267,7.2673,0,7.021,7.0246,7.051,7.0624,7.0657,7.083,7.0928,7.1073,7.1111,7.1316,7.1364,7.1425,7.1609,7.1643,7.186,7.1872,7.2159,7.2137,7.2117,7.2115,7.2289,7.2272,7.285,7.2926,7.2439,7.2443,7.2447,0,6.9851,7.0068,7.0109,7.026,7.0501,7.0507,7.0746,7.0802,7.0902,7.1064,7.1023,7.1175,7.1194,7.1352,7.1371,7.1611,7.1652,7.1675,7.1678,7.1679,7.1676,7.1739,7.1716,7.1677,7.1674,7.1671,7.1669,0,6.9458,6.9735,6.998,7.0048,7.0192,7.0308,7.0373,7.0485,7.0589,7.0729,7.0796,7.096,7.105,7.1177,7.1198,7.1084,7.1493,7.1341,7.1517,7.1517,7.1606,7.16,7.2102,7.1665,7.1664,7.1663,7.1662,0,6.9174,6.9314,6.9664,6.9782,6.9854,7.0017,7.0176,7.0323,7.0444,7.0465,7.0576,7.0553,7.0765,7.0611,7.0904,7.0749,7.084,7.0882,7.0895,7.0916,7.0743,7.1022,7.1497,7.1548,7.0936,7.093,7.0924,0,6.8714,6.9077,6.9084,6.9417,6.9589,6.953,6.9711,6.9819,6.9862,7.0015,7.0063,7.0238,7.013,7.019,7.033,7.0387,7.0589,7.0361,7.0583,7.0591,7.0551,7.0989,7.1051,7.1389,7.0847,7.0856,7.0861,0,6.8362,6.8533,6.8593,6.8671,6.8814,6.8959,6.9166,6.934,6.9441,6.9568,6.9742,6.9989,6.9918,7.0017,7.0015,7.016,7.0453,7.0064,7.0067,7.0133,7.0812,7.0869,7.0926,7.042,7.0429,7.0437,7.08,0,6.7924,6.811,6.827,6.8445,6.8561,6.8772,6.8805,6.8923,6.8908,6.8949,6.9206,6.9306,6.9484,6.9557,6.9546,6.9866,6.9818,6.974,6.9593,6.988,7.0001,7.005,6.941,6.9406,6.9403,6.94,0,0,6.7475,6.7741,6.7742,6.7943,6.8041,6.7976,6.8198,6.8287,6.8468,6.8537,6.8455,6.8818,6.8902,6.9212,6.9304,6.9376,6.9437,6.9336,6.9743,6.9781,6.9817,6.9945,6.9996,6.9394,6.9392,6.9391,6.939,0,6.7321,6.7406,6.7624,6.7715,6.785,6.7881,6.7934,6.8056,6.8092,6.8344,6.8289,6.8447,6.8738,6.8834,6.8921,6.9299,6.9248,6.9351,6.9542,6.9707,6.975,6.9788,6.9922,6.9971,6.9382,6.9382,6.9382,0,6.698,6.7069,6.7178,6.7397,6.7484,6.7664,6.7517,6.7712,6.7845,6.7766,6.8017,6.8077,6.821,6.8498,6.8628,6.8557,6.9075,6.8918,6.8941,6.8956,6.9118,6.9169,6.9215,6.8612,6.8609,6.8607,0,0,6.6843,6.7015,6.7114,6.7366,6.7425,6.7475,6.7574,6.7569,6.7688,6.7736,6.7812,6.793,6.8099,6.821,6.837,6.8681,6.871,6.8822,6.8858,6.8887,6.8919,6.9088,6.9139,6.8596,6.8596,6.8595,0,0,6.6778,6.6902,6.6865,6.7161,6.7276,6.7391,6.7544,6.7503,6.765,6.7629,6.7633,6.7664,6.7934,6.7996,6.7848,6.8318,6.8172,6.8208,6.8268,6.8314,6.835,6.833,6.7713,0,0,0,0,0,6.6637,6.6885,6.6851,6.6906,6.7183,6.7409,6.7445,6.7452,6.7348,6.7469,6.7525,6.7465,6.7917,6.7786,6.7841,6.8006,6.8458,6.8483,6.8506,6.8657,6.8705,6.8745,0,0,0,0,0,0,6.6658,6.6725,6.6845,6.697,6.7032,6.74,6.7225,6.7234,6.7335,6.7319,6.7455,6.7469,6.748,6.7759,6.7808,6.7964,6.7696,6.8468,6.8488,6.8507,6.8673,6.8712,6.8746,0,0,0,0,0,6.6676,6.6729,6.7172,6.6967,6.7021,6.709,6.7216,6.7222,6.73,6.7388,6.7399,6.7296,6.7485,6.7527,6.7788,6.7942,6.7662,6.768,6.8481,6.8498,6.8512,6.8692,0,0,0,0,0,0,6.6688,6.6737,6.7183,6.72,6.6873,6.7069,6.71,6.7211,6.7362,6.7376,6.7228,6.7214,6.7491,6.7522,6.7555,6.7933,6.7634,6.7653,6.7665,6.8494,6.8506,6.8518,0,0,0,0,0,0,6.6708,6.6752,6.7191,6.7072,6.7076,6.705,6.7078,6.7301,6.7365,6.7193,6.7186,6.722,6.7442,6.7521,6.7546,6.7894,6.7613,6.7631,6.7643,6.7651,6.8504,6.8514,0,0,0,0,0,0,6.6726,6.6764,6.7068,6.7071,6.7073,6.7262,6.7248,6.7532,6.7262,6.7188,6.7238,6.7227,6.7442,6.7468,6.754,6.7878,6.789,6.7613,6.7626,6.7634,6.764,0,0,0,0,0,0,0,6.6742,6.6489,6.7083,6.7069,6.7071,6.7355,6.736,6.7364,6.7259,6.725,6.724,6.7231,6.7511,6.753,6.755,6.7865,0,0,6.7612,6.762,0,0,0,0,0,0,0,0,6.6473,6.6485,6.7083,6.7087,6.709,6.7356,6.736,6.7363,6.7257,6.725,6.7242,6.7235,6.7516,6.7532,6.7548,0,0,0,0,0,0,0,0,0,0,0,0,0,0,0,6.7084,6.7087,0,6.7356,6.736,6.7363,6.7256,6.725,6.7244,6.7238,6.752,6.7533,6.7547,0,0,0,0,0,0,0,0,0,0,0,0,0,0,0,0,0,0,0,0,0,0,0,0,0,0,0,0,0,0,0,0,0,0,0,0,0,0,0,0,0,0,0,0,0,0,0,0,0,0,0,0,0,0,0,0,0,0,0,0,0,0,0,0,0,0,0,0,0]}],[{"header":{"parameterUnit":"kt","parameterCategory":2,"dx":1,"dy":1,"la1":30.253999710083008,"la2":30.299108505249023,"lo1":-89.0895004272461,"lo2":-89.04439544677734,"nx":28,"ny":28,"refTime":"2022-09-25T21:00:00:Z","depth":0,"parameterNumber":2,"parameterNumberName":"V-component_of_WINDS"},"data":[-0.7583,-0.7567,-0.7566,-0.7547,-0.7543,-0.753,-0.7524,-0.7517,-0.7512,-0.7495,-0.7486,-0.7482,-0.7475,-0.7463,-0.7452,-0.7451,-0.7446,-0.7442,-0.7441,-0.7461,-0.7464,-0.7466,-0.747,-0.7441,-0.7441,-0.742,-0.742,-0.742,-0.76,-0.7596,-0.7586,-0.7575,-0.7566,-0.7569,-0.7561,-0.7553,-0.754,-0.7533,-0.7523,-0.7508,-0.7496,-0.749,-0.7478,-0.747,-0.747,-0.7467,-0.7467,-0.7465,-0.7487,-0.7491,-0.7466,-0.7466,-0.7466,-0.7466,-0.7466,-0.7466,-0.7631,-0.7622,-0.7614,-0.7603,-0.7596,-0.7589,-0.7579,-0.7575,-0.7564,-0.7552,-0.7552,-0.7537,-0.7529,-0.7512,-0.7506,-0.7495,-0.7498,-0.7493,-0.7492,-0.7491,-0.749,-0.7521,-0.7493,-0.7493,-0.7493,-0.7493,-0.7493,0,-0.7653,-0.7653,-0.7643,-0.7632,-0.7623,-0.7614,-0.7606,-0.76,-0.7597,-0.7588,-0.7575,-0.7566,-0.755,-0.7537,-0.7525,-0.7519,-0.752,-0.752,-0.7517,-0.7517,-0.7519,-0.7518,-0.7553,-0.7521,-0.7521,-0.7521,-0.7521,-0.7521,-0.7684,-0.7673,-0.7664,-0.7657,-0.7652,-0.764,-0.7632,-0.763,-0.7622,-0.7611,-0.7602,-0.7589,-0.7578,-0.7556,-0.755,-0.7538,-0.7538,-0.7526,-0.7536,-0.7537,-0.7538,-0.7538,-0.7537,-0.7524,-0.7523,-0.7523,-0.7523,0,-0.7702,-0.7699,-0.7681,-0.7672,-0.767,-0.7658,-0.765,-0.764,-0.7637,-0.7622,-0.7618,-0.7612,-0.7599,-0.7594,-0.7577,-0.7575,-0.7555,-0.7556,-0.7559,-0.7559,-0.7547,-0.7548,-0.7511,-0.7506,-0.7537,-0.7536,-0.7536,0,-0.7727,-0.7712,-0.7708,-0.7698,-0.7681,-0.7679,-0.7662,-0.7657,-0.765,-0.7638,-0.7639,-0.7628,-0.7624,-0.7612,-0.7609,-0.7592,-0.7588,-0.7586,-0.7585,-0.7585,-0.7586,-0.758,-0.7581,-0.7584,-0.7584,-0.7584,-0.7584,0,-0.7755,-0.7734,-0.7717,-0.7712,-0.77,-0.7692,-0.7687,-0.7678,-0.767,-0.7659,-0.7654,-0.7641,-0.7633,-0.7623,-0.762,-0.7627,-0.7598,-0.7607,-0.7595,-0.7595,-0.7588,-0.7589,-0.7558,-0.7585,-0.7585,-0.7585,-0.7585,0,-0.7774,-0.7764,-0.7739,-0.7729,-0.7724,-0.7712,-0.77,-0.7688,-0.7678,-0.7676,-0.7667,-0.7666,-0.7651,-0.766,-0.7638,-0.7649,-0.7641,-0.7637,-0.7636,-0.7634,-0.7644,-0.7627,-0.7598,-0.7595,-0.7633,-0.7634,-0.7634,0,-0.7806,-0.778,-0.7778,-0.7754,-0.7742,-0.7744,-0.7731,-0.7722,-0.7717,-0.7705,-0.77,-0.7686,-0.7692,-0.7686,-0.7676,-0.767,-0.7657,-0.7672,-0.7654,-0.7653,-0.7656,-0.763,-0.7627,-0.7605,-0.7639,-0.7638,-0.7638,0,-0.7831,-0.7817,-0.7813,-0.7806,-0.7794,-0.7783,-0.7768,-0.7754,-0.7746,-0.7735,-0.7722,-0.7702,-0.7705,-0.7696,-0.7694,-0.7684,-0.7666,-0.7689,-0.7688,-0.7685,-0.7641,-0.7638,-0.7634,-0.7666,-0.7666,-0.7665,-0.7642,0,-0.7861,-0.7847,-0.7835,-0.7821,-0.7811,-0.7796,-0.7791,-0.7782,-0.7781,-0.7776,-0.7757,-0.7746,-0.7731,-0.7725,-0.7723,-0.7701,-0.7704,-0.7707,-0.7715,-0.7698,-0.769,-0.7687,-0.7727,-0.7728,-0.7728,-0.7728,0,0,-0.7892,-0.7872,-0.7869,-0.7855,-0.7846,-0.7848,-0.7832,-0.7824,-0.7808,-0.7802,-0.7806,-0.7776,-0.7767,-0.7743,-0.7738,-0.7731,-0.7726,-0.7732,-0.7706,-0.7704,-0.7702,-0.7693,-0.769,-0.7728,-0.7728,-0.7728,-0.7728,0,-0.7902,-0.7894,-0.7878,-0.787,-0.7858,-0.7854,-0.785,-0.7838,-0.7834,-0.7814,-0.7815,-0.7802,-0.7777,-0.7768,-0.776,-0.7735,-0.7736,-0.7731,-0.772,-0.7708,-0.7705,-0.7703,-0.7695,-0.7691,-0.7729,-0.7729,-0.7729,0,-0.7925,-0.7916,-0.7908,-0.789,-0.7881,-0.7867,-0.7875,-0.786,-0.7849,-0.785,-0.783,-0.7823,-0.781,-0.7788,-0.7778,-0.7781,-0.7745,-0.7755,-0.7754,-0.7752,-0.774,-0.7737,-0.7734,-0.7771,-0.7771,-0.7771,0,0,-0.7933,-0.792,-0.791,-0.7891,-0.7886,-0.7879,-0.7871,-0.7869,-0.7857,-0.7853,-0.7844,-0.7832,-0.7818,-0.7808,-0.7794,-0.777,-0.7767,-0.776,-0.7758,-0.7757,-0.7754,-0.7742,-0.7739,-0.7772,-0.7772,-0.7772,0,0,-0.7937,-0.7925,-0.7926,-0.7904,-0.7894,-0.7881,-0.787,-0.7871,-0.7857,-0.7858,-0.7853,-0.785,-0.7829,-0.7822,-0.7832,-0.7796,-0.7804,-0.7801,-0.7801,-0.7799,-0.7797,-0.7799,-0.7836,0,0,0,0,0,-0.7944,-0.7927,-0.7928,-0.7923,-0.7899,-0.7881,-0.7877,-0.7873,-0.788,-0.7871,-0.7863,-0.7864,-0.7826,-0.7835,-0.783,-0.7819,-0.778,-0.7779,-0.7777,-0.7772,-0.7769,-0.7767,0,0,0,0,0,0,-0.7942,-0.7937,-0.7928,-0.7915,-0.791,-0.7881,-0.7891,-0.7889,-0.788,-0.7881,-0.7866,-0.7864,-0.7859,-0.7837,-0.7833,-0.7822,-0.7838,-0.778,-0.7778,-0.7777,-0.7771,-0.7769,-0.7767,0,0,0,0,0,-0.7941,-0.7937,-0.7899,-0.7916,-0.7911,-0.7901,-0.7891,-0.789,-0.7883,-0.7871,-0.7869,-0.7881,-0.7859,-0.7855,-0.7834,-0.7824,-0.7841,-0.7839,-0.7779,-0.7778,-0.7777,-0.777,0,0,0,0,0,0,-0.794,-0.7935,-0.7898,-0.7896,-0.7922,-0.7903,-0.79,-0.7891,-0.7874,-0.7872,-0.7886,-0.7887,-0.7859,-0.7856,-0.7853,-0.7825,-0.7843,-0.7842,-0.7841,-0.7778,-0.7777,-0.7777,0,0,0,0,0,0,-0.7937,-0.7934,-0.7897,-0.7905,-0.7904,-0.7904,-0.7901,-0.7883,-0.7874,-0.789,-0.789,-0.7887,-0.7863,-0.7856,-0.7854,-0.7825,-0.7845,-0.7844,-0.7842,-0.7842,-0.7777,-0.7777,0,0,0,0,0,0,-0.7936,-0.7932,-0.7905,-0.7905,-0.7904,-0.7886,-0.7887,-0.7862,-0.7882,-0.789,-0.7883,-0.7884,-0.7863,-0.7861,-0.7854,-0.7826,-0.7825,-0.7845,-0.7844,-0.7843,-0.7843,0,0,0,0,0,0,0,-0.7934,-0.7957,-0.7908,-0.7905,-0.7904,-0.7881,-0.7881,-0.788,-0.7882,-0.7883,-0.7883,-0.7884,-0.7854,-0.7852,-0.7851,-0.7828,0,0,-0.7845,-0.7844,0,0,0,0,0,0,0,0,-0.7958,-0.7957,-0.7908,-0.7907,-0.7907,-0.7881,-0.7881,-0.788,-0.7882,-0.7883,-0.7883,-0.7883,-0.7854,-0.7852,-0.7851,0,0,0,0,0,0,0,0,0,0,0,0,0,0,0,-0.7907,-0.7907,0,-0.7881,-0.7881,-0.788,-0.7882,-0.7882,-0.7883,-0.7883,-0.7853,-0.7852,-0.7851,0,0,0,0,0,0,0,0,0,0,0,0,0,0,0,0,0,0,0,0,0,0,0,0,0,0,0,0,0,0,0,0,0,0,0,0,0,0,0,0,0,0,0,0,0,0,0,0,0,0,0,0,0,0,0,0,0,0,0,0,0,0,0,0,0,0,0,0,0]}]]]